[[{"header":{"parameterUnit":"m.s-1","parameterCategory":1,"la1":30.2991,"la2":30.254,"lo1":-89.0895,"lo2":-89.0444,"dy":0.0017,"dx":0.0017,"nx":28,"ny":28,"refTime":"2023-07-26T21:00:00:Z","depth":0,"parameterNumber":2,"parameterNumberName":"U-component_of_WINDS"},"data":[0,0,0,0,0,0,0,0,0,0,0,0,0,0,0,0,0,0,0,0,0,0,0,0,0,0,0,0,0,0,0,0,0,0,0,0,0,0,0,0,0,0,0,0,0,0,0,0,0,0,0,0,0,0,0,0,0,0,2.7768,2.7769,0,2.782,2.7821,2.7821,2.7774,2.7772,2.777,2.7768,2.782,2.7824,2.7827,0,0,0,0,0,0,0,0,0,0,0,0,0,2.7625,2.7628,2.7768,2.7769,2.7769,2.782,2.7821,2.7822,2.7774,2.7772,2.777,2.7768,2.7819,2.7823,2.7827,0,0,0,0,0,0,0,0,0,0,0,0,0,2.7683,2.7629,2.7768,2.7752,2.7751,2.782,2.7821,2.7822,2.7775,2.7772,2.7769,2.7767,2.7818,2.7823,2.7828,2.7914,0,0,2.7842,2.7844,0,0,0,0,0,0,0,0,2.768,2.7688,2.7754,2.7753,2.7752,2.7788,2.7789,2.7853,2.7776,2.7766,2.7768,2.7765,2.7812,2.7817,2.7833,2.7917,2.7919,2.7842,2.7845,2.7847,2.7849,0,0,0,0,0,0,0,2.7676,2.7686,2.7789,2.7755,2.7754,2.7741,2.7746,2.7801,2.7804,2.7767,2.7763,2.777,2.7811,2.7829,2.7834,2.792,2.7842,2.7847,2.7849,2.7851,2.8073,2.8076,0,0,0,0,0,0,2.7674,2.7683,2.7787,2.779,2.7708,2.7746,2.7752,2.7779,2.7804,2.7805,2.7772,2.7768,2.7822,2.7828,2.7835,2.7936,2.7847,2.7852,2.7855,2.807,2.8074,2.8077,0,0,0,0,0,0,2.7671,2.7683,2.7785,2.7736,2.7748,2.7752,2.7783,2.7782,2.7799,2.7808,2.7808,2.779,2.782,2.7829,2.7894,2.7937,2.7854,2.7858,2.8067,2.8071,2.8076,2.8139,0,0,0,0,0,0,2.7667,2.7683,2.7717,2.7737,2.775,2.7844,2.7786,2.7785,2.7808,2.7802,2.7825,2.7826,2.7818,2.7887,2.7899,2.7942,2.7862,2.8063,2.8069,2.8074,2.8133,2.8145,2.8155,0,0,0,0,0,2.7662,2.7733,2.7719,2.7732,2.7793,2.7847,2.7854,2.7845,2.7812,2.7845,2.785,2.7825,2.7931,2.7895,2.7907,2.7952,2.806,2.8067,2.8074,2.8128,2.8143,2.8155,0,0,0,0,0,0,2.7718,2.7735,2.772,2.78,2.7822,2.7839,2.788,2.7861,2.7893,2.7887,2.7873,2.7878,2.7947,2.7957,2.7916,2.8036,2.799,2.8,2.8027,2.8041,2.8052,2.8047,2.7866,0,0,0,0,0,2.774,2.7783,2.7795,2.7864,2.7876,2.7877,2.79,2.789,2.7913,2.7922,2.7932,2.7954,2.7992,2.8017,2.8053,2.8135,2.8137,2.8172,2.8183,2.8192,2.82,2.824,2.8255,2.81,2.81,2.81,0,0,2.7785,2.78,2.7828,2.7876,2.7892,2.7935,2.7885,2.7934,2.7965,2.7929,2.7991,2.7999,2.8023,2.8096,2.8128,2.8106,2.8243,2.8201,2.8208,2.8211,2.8249,2.8263,2.8276,2.8105,2.8104,2.8103,0,0,2.7889,2.7906,2.7963,2.798,2.8005,2.8004,2.8018,2.8038,2.8041,2.8103,2.8076,2.8113,2.818,2.8196,2.8214,2.8321,2.8298,2.8334,2.8391,2.8431,2.8443,2.8454,2.8489,2.8502,2.8342,2.8342,2.8342,0,2.7942,2.8006,2.7995,2.8045,2.8066,2.8035,2.8092,2.8109,2.8144,2.8159,2.8133,2.8214,2.8228,2.8303,2.8329,2.8345,2.8358,2.833,2.8442,2.8453,2.8463,2.8496,2.851,2.8346,2.8345,2.8345,2.8345,0,2.8068,2.8113,2.8157,2.8191,2.8216,2.827,2.8265,2.8293,2.8281,2.8282,2.8344,2.8359,2.8396,2.8414,2.8403,2.8486,2.8471,2.8444,2.8397,2.8481,2.8512,2.8525,2.8351,2.835,2.8349,2.8348,0,0,2.8209,2.8235,2.8251,2.8264,2.8288,2.8322,2.8373,2.8409,2.8431,2.8456,2.8497,2.8553,2.8527,2.8547,2.8538,2.8573,2.8653,2.8541,2.8541,2.8559,2.8742,2.8759,2.8775,2.8638,2.8641,2.8643,2.8738,0,2.8311,2.8399,2.839,2.8473,2.8513,2.8483,2.8527,2.8546,2.8548,2.8581,2.8584,2.8623,2.8588,2.8599,2.8633,2.8636,2.8689,2.8629,2.8673,2.8675,2.8666,2.8791,2.8811,2.8901,2.8751,2.8753,2.8755,0,2.8442,2.8471,2.8558,2.8573,2.8589,2.8629,2.8659,2.8692,2.8711,2.871,2.8732,2.8715,2.8764,2.8718,2.8784,2.8743,2.8761,2.8765,2.8769,2.877,2.8718,2.8794,2.893,2.8942,2.8774,2.8773,2.8771,0,2.8532,2.8592,2.8651,2.8664,2.8684,2.8712,2.8722,2.8739,2.876,2.8786,2.8799,2.8832,2.8848,2.8873,2.8865,2.8833,2.8931,2.8885,2.893,2.893,2.895,2.8948,2.9088,2.8966,2.8966,2.8966,2.8966,0,2.8646,2.8699,2.8691,2.8727,2.8786,2.8774,2.8831,2.8837,2.8852,2.8888,2.8865,2.8899,2.8888,2.892,2.8915,2.8968,2.8977,2.8975,2.8973,2.8976,2.8976,2.8985,2.8978,2.897,2.8969,2.8968,2.8967,0,2.8755,2.8753,2.8814,2.8827,2.8832,2.8874,2.8885,2.8918,2.8918,2.8963,2.8972,2.8972,2.9009,2.9004,2.9046,2.9042,2.9107,2.9099,2.91,2.9097,2.9141,2.9135,2.9289,2.9307,2.9177,2.9178,2.9179,0,2.8826,2.8867,2.8884,2.8905,2.8917,2.8953,2.8973,2.8963,2.8985,2.9009,2.9039,2.9073,2.91,2.916,2.9163,2.9194,2.9184,2.9235,2.9188,2.9189,2.9181,2.9177,2.918,2.9244,2.9245,2.9247,2.9248,0,2.8952,2.8948,2.8979,2.9009,2.9034,2.9057,2.9078,2.9097,2.9088,2.9114,2.9151,2.9172,2.9213,2.9247,2.9275,2.9284,2.9263,2.9263,2.9274,2.9276,2.9274,2.9272,2.9122,2.9259,2.9258,2.9257,2.9256,2.9256,2.9043,2.9075,2.9092,2.9126,2.914,2.916,2.919,2.9193,2.9224,2.9256,2.9248,2.9289,2.9305,2.9341,2.9353,2.9384,2.9365,2.9382,2.9386,2.9389,2.9393,2.9272,2.9389,2.9389,2.9389,2.9389,2.9388,0,2.9164,2.9173,2.9205,2.9233,2.926,2.9239,2.926,2.9283,2.9319,2.9336,2.9363,2.9404,2.9436,2.9441,2.9471,2.9494,2.9485,2.9502,2.9499,2.95,2.941,2.9396,2.9508,2.9508,2.9508,2.9508,2.9508,2.9508,2.923,2.9284,2.9281,2.9341,2.9349,2.9388,2.9402,2.9419,2.9432,2.9478,2.9504,2.9507,2.9519,2.9549,2.9577,2.9577,2.9588,2.9608,2.9604,2.9519,2.9507,2.9496,2.9482,2.9611,2.9611,2.9691,2.9692,2.9693]},{"header":{"parameterUnit":"m.s-1","parameterCategory":1,"la1":30.2991,"la2":30.254,"lo1":-89.0895,"lo2":-89.0444,"dy":0.0017,"dx":0.0017,"nx":28,"ny":28,"refTime":"2023-07-26T21:00:00:Z","depth":0,"parameterNumber":3,"parameterNumberName":"V-component_of_WINDS"},"data":[0,0,0,0,0,0,0,0,0,0,0,0,0,0,0,0,0,0,0,0,0,0,0,0,0,0,0,0,0,0,0,0,0,0,0,0,0,0,0,0,0,0,0,0,0,0,0,0,0,0,0,0,0,0,0,0,0,0,0.3906,0.3906,0,0.3948,0.3948,0.3949,0.3932,0.3931,0.393,0.3929,0.3972,0.3974,0.3976,0,0,0,0,0,0,0,0,0,0,0,0,0,0.381,0.3812,0.3906,0.3906,0.3907,0.3948,0.3948,0.3949,0.3933,0.3931,0.393,0.3929,0.3971,0.3974,0.3976,0,0,0,0,0,0,0,0,0,0,0,0,0,0.3852,0.3812,0.3906,0.3904,0.3904,0.3948,0.3948,0.3949,0.3933,0.3931,0.393,0.3928,0.3971,0.3974,0.3977,0.4025,0,0,0.3986,0.3987,0,0,0,0,0,0,0,0,0.3849,0.3855,0.3903,0.3904,0.3904,0.3933,0.393,0.3974,0.3933,0.3922,0.3929,0.3928,0.396,0.3964,0.3975,0.4027,0.4029,0.3986,0.3988,0.3989,0.399,0,0,0,0,0,0,0,0.3846,0.3853,0.3922,0.3904,0.3905,0.39,0.3904,0.3938,0.3949,0.3923,0.3922,0.3927,0.396,0.3972,0.3976,0.4029,0.3986,0.3989,0.3991,0.3992,0.4121,0.4122,0,0,0,0,0,0,0.3843,0.3851,0.3921,0.3924,0.3873,0.3903,0.3908,0.3925,0.3948,0.395,0.3928,0.3926,0.3968,0.3973,0.3978,0.4035,0.3989,0.3992,0.3994,0.4119,0.4121,0.4123,0,0,0,0,0,0,0.3841,0.385,0.3919,0.3887,0.3895,0.3906,0.3926,0.3927,0.3939,0.3952,0.3954,0.3939,0.3967,0.3973,0.4013,0.4036,0.3994,0.3996,0.4117,0.412,0.4122,0.415,0,0,0,0,0,0,0.3839,0.3849,0.3868,0.3888,0.3897,0.3955,0.3928,0.3929,0.3945,0.3942,0.3963,0.3965,0.3966,0.4008,0.4016,0.4039,0.3999,0.4115,0.4118,0.4121,0.4147,0.4153,0.4158,0,0,0,0,0,0.3835,0.3875,0.3869,0.3878,0.3921,0.3956,0.3962,0.3963,0.3946,0.3965,0.3973,0.3964,0.4032,0.4013,0.4021,0.4046,0.4114,0.4117,0.4121,0.4144,0.4152,0.4158,0,0,0,0,0,0,0.3858,0.3877,0.3872,0.3918,0.3936,0.3953,0.3977,0.397,0.3993,0.399,0.399,0.3994,0.4035,0.4044,0.4022,0.4093,0.407,0.4076,0.4085,0.4092,0.4098,0.4095,0.4001,0,0,0,0,0,0.3869,0.3896,0.3911,0.395,0.3959,0.3967,0.3982,0.3981,0.3999,0.4006,0.4017,0.4035,0.406,0.4077,0.4101,0.4148,0.4152,0.4169,0.4174,0.4179,0.4184,0.4208,0.4216,0.4134,0.4134,0.4134,0,0,0.3891,0.3904,0.3922,0.3955,0.3969,0.3996,0.3973,0.4003,0.4023,0.4011,0.4049,0.4057,0.4077,0.412,0.414,0.4129,0.4207,0.4183,0.4187,0.4189,0.4212,0.422,0.4227,0.4137,0.4136,0.4136,0,0,0.3945,0.3958,0.3992,0.4006,0.4026,0.403,0.4038,0.4056,0.4062,0.41,0.409,0.4114,0.4157,0.4171,0.4184,0.4241,0.4233,0.4249,0.4278,0.4302,0.4308,0.4314,0.4333,0.4341,0.4253,0.4253,0.4253,0,0.397,0.4011,0.4011,0.4041,0.4056,0.4045,0.4079,0.4092,0.4119,0.4129,0.4116,0.417,0.4182,0.4228,0.4242,0.4253,0.4261,0.4247,0.4307,0.4313,0.4318,0.4337,0.4344,0.4255,0.4255,0.4255,0.4255,0,0.404,0.4068,0.4093,0.4119,0.4137,0.4169,0.4173,0.419,0.4187,0.4193,0.4231,0.4245,0.4271,0.4281,0.4279,0.4326,0.4319,0.4307,0.4285,0.4328,0.4345,0.4353,0.4258,0.4257,0.4256,0.4256,0,0,0.4111,0.4135,0.4144,0.4155,0.4176,0.4198,0.4229,0.4254,0.4269,0.4287,0.4312,0.4349,0.4337,0.4351,0.435,0.4371,0.4414,0.4356,0.4356,0.4366,0.4466,0.4476,0.4484,0.4409,0.441,0.4411,0.4465,0,0.4167,0.4221,0.4221,0.4271,0.4297,0.4286,0.4313,0.4328,0.4333,0.4355,0.4361,0.4386,0.4369,0.4378,0.4398,0.4405,0.4434,0.4401,0.4432,0.4433,0.4428,0.4493,0.4504,0.4554,0.4472,0.4473,0.4474,0,0.4239,0.4259,0.4312,0.4327,0.4338,0.4362,0.4385,0.4406,0.4422,0.4425,0.444,0.4435,0.4465,0.4441,0.4483,0.446,0.4472,0.4478,0.4479,0.4483,0.4456,0.4498,0.457,0.4577,0.4485,0.4484,0.4483,0,0.4285,0.4325,0.4362,0.4372,0.4391,0.4408,0.4416,0.4431,0.4446,0.4465,0.4474,0.4497,0.4509,0.4526,0.4527,0.451,0.4569,0.4545,0.4571,0.4571,0.4585,0.4584,0.4659,0.4592,0.4592,0.4592,0.4592,0,0.4347,0.438,0.4383,0.4405,0.4441,0.444,0.4475,0.4482,0.4495,0.4518,0.4509,0.4531,0.4531,0.4553,0.4553,0.4587,0.4593,0.4595,0.4595,0.4596,0.4596,0.4604,0.4601,0.4594,0.4594,0.4593,0.4593,0,0.4405,0.4408,0.4447,0.4462,0.4466,0.4491,0.4503,0.4524,0.4528,0.4557,0.4564,0.457,0.4595,0.4597,0.4627,0.4627,0.4668,0.4664,0.4662,0.4662,0.4687,0.4685,0.4771,0.4782,0.4708,0.4709,0.4709,0,0.4445,0.4469,0.4486,0.4501,0.451,0.4534,0.4549,0.4548,0.4563,0.4583,0.4601,0.4625,0.4644,0.4685,0.4691,0.4713,0.471,0.4738,0.4713,0.4713,0.471,0.4708,0.471,0.4743,0.4744,0.4745,0.4745,0,0.4514,0.4514,0.4536,0.4557,0.4575,0.4592,0.4608,0.462,0.4621,0.4639,0.4664,0.4679,0.4708,0.4732,0.4753,0.4761,0.4754,0.4753,0.476,0.4762,0.476,0.4761,0.4676,0.4751,0.4751,0.475,0.475,0.475,0.4564,0.4585,0.4599,0.4623,0.4635,0.465,0.467,0.4675,0.4697,0.472,0.4718,0.4746,0.476,0.4788,0.4797,0.4818,0.4809,0.4819,0.4822,0.4824,0.4827,0.4756,0.4822,0.4822,0.4822,0.4822,0.4822,0,0.4633,0.4641,0.4663,0.4685,0.4704,0.4694,0.4711,0.4727,0.4751,0.4765,0.4784,0.4812,0.4835,0.4843,0.4864,0.488,0.4877,0.4886,0.4885,0.4886,0.4834,0.4826,0.4888,0.4888,0.4888,0.4888,0.4888,0.4888,0.4671,0.4705,0.4707,0.4746,0.4755,0.4782,0.4792,0.4805,0.4816,0.4848,0.4867,0.4872,0.4883,0.4905,0.4925,0.4926,0.4935,0.4945,0.4945,0.4897,0.489,0.4884,0.4876,0.4947,0.4947,0.4995,0.4996,0.4996]}]]